owner,sensor,date,latitude,longitude,vertical_datum,sea_water_practical_salinity,qcFlag 
SCCF RECON,ioos:station:SCCF:12:1,2011-03-01T00:00:00Z,26.4966,-82.1479,2.258,33.0,1111122 
SCCF RECON,ioos:station:SCCF:12:1,2011-03-01T01:00:00Z,26.4966,-82.1479,2.329,32.98,1111122 
SCCF RECON,ioos:station:SCCF:12:1,2011-03-01T02:00:00Z,26.4966,-82.1479,2.36,32.97,1111122 
SCCF RECON,ioos:station:SCCF:12:1,2011-03-01T03:00:00Z,26.4966,-82.1479,2.34,33.01,1111122 
SCCF RECON,ioos:station:SCCF:12:1,2011-03-01T04:00:00Z,26.4966,-82.1479,2.28,33.12,1111122 
SCCF RECON,ioos:station:SCCF:12:1,2011-03-01T05:00:00Z,26.4966,-82.1479,2.21,33.09,1111122 
SCCF RECON,ioos:station:SCCF:12:1,2011-03-01T06:00:00Z,26.4966,-82.1479,2.13,33.08,1111122 
SCCF RECON,ioos:station:SCCF:12:1,2011-03-01T07:00:00Z,26.4966,-82.1479,2.01,33.1,1111122 
SCCF RECON,ioos:station:SCCF:12:1,2011-03-01T08:00:00Z,26.4966,-82.1479,1.895,33.12,1111122 
SCCF RECON,ioos:station:SCCF:12:1,2011-03-01T09:00:00Z,26.4966,-82.1479,1.78,33.12,1111122 
SCCF RECON,ioos:station:SCCF:12:1,2011-03-01T10:00:00Z,26.4966,-82.1479,1.68,33.1,1111122 
SCCF RECON,ioos:station:SCCF:12:1,2011-03-01T11:00:00Z,26.4966,-82.1479,1.61,33.1,1111122 
SCCF RECON,ioos:station:SCCF:12:1,2011-03-01T12:00:00Z,26.4966,-82.1479,1.62,33.1,1111122 
SCCF RECON,ioos:station:SCCF:12:1,2011-03-01T13:00:00Z,26.4966,-82.1479,1.731,33.09,1111122 
SCCF RECON,ioos:station:SCCF:12:1,2011-03-01T14:00:00Z,26.4966,-82.1479,1.86,33.08,1111122 
SCCF RECON,ioos:station:SCCF:12:1,2011-03-01T15:00:00Z,26.4966,-82.1479,1.976,33.09,1111122 
SCCF RECON,ioos:station:SCCF:12:1,2011-03-01T16:00:00Z,26.4966,-82.1479,2.081,33.09,1111122 
SCCF RECON,ioos:station:SCCF:12:1,2011-03-01T17:00:00Z,26.4966,-82.1479,2.14,33.14,1111122 
SCCF RECON,ioos:station:SCCF:12:1,2011-03-01T18:00:00Z,26.4966,-82.1479,2.145,33.22,1111122 
SCCF RECON,ioos:station:SCCF:12:1,2011-03-01T19:00:00Z,26.4966,-82.1479,2.118,33.25,1111122 
SCCF RECON,ioos:station:SCCF:12:1,2011-03-01T20:00:00Z,26.4966,-82.1479,2.08,33.27,1111122 
SCCF RECON,ioos:station:SCCF:12:1,2011-03-01T21:00:00Z,26.4966,-82.1479,2.041,33.26,1111122 
SCCF RECON,ioos:station:SCCF:12:1,2011-03-01T22:00:00Z,26.4966,-82.1479,2.02,33.27,1111122 
SCCF RECON,ioos:station:SCCF:12:1,2011-03-01T23:00:00Z,26.4966,-82.1479,2.037,33.26,1111122 
SCCF RECON,ioos:station:SCCF:12:1,2011-03-02T00:00:00Z,26.4966,-82.1479,2.11,33.22,1111122 
SCCF RECON,ioos:station:SCCF:12:1,2011-03-02T01:00:00Z,26.4966,-82.1479,2.249,33.11,1111122 
SCCF RECON,ioos:station:SCCF:12:1,2011-03-02T02:00:00Z,26.4966,-82.1479,2.35,33.1,1111122 
SCCF RECON,ioos:station:SCCF:12:1,2011-03-02T03:00:00Z,26.4966,-82.1479,2.416,33.08,1111122 
SCCF RECON,ioos:station:SCCF:12:1,2011-03-02T04:00:00Z,26.4966,-82.1479,2.422,33.07,1111122 
SCCF RECON,ioos:station:SCCF:12:1,2011-03-02T05:00:00Z,26.4966,-82.1479,2.374,33.08,1111122 
SCCF RECON,ioos:station:SCCF:12:1,2011-03-02T06:00:00Z,26.4966,-82.1479,2.279,33.1,1111122 
SCCF RECON,ioos:station:SCCF:12:1,2011-03-02T07:00:00Z,26.4966,-82.1479,2.161,33.1,1111122 
SCCF RECON,ioos:station:SCCF:12:1,2011-03-02T08:00:00Z,26.4966,-82.1479,2.052,33.1,1111122 
SCCF RECON,ioos:station:SCCF:12:1,2011-03-02T09:00:00Z,26.4966,-82.1479,1.945,33.1,1111122 
SCCF RECON,ioos:station:SCCF:12:1,2011-03-02T10:00:00Z,26.4966,-82.1479,1.84,33.1,1111122 
SCCF RECON,ioos:station:SCCF:12:1,2011-03-02T11:00:00Z,26.4966,-82.1479,1.757,33.1,1111122 
SCCF RECON,ioos:station:SCCF:12:1,2011-03-02T12:00:00Z,26.4966,-82.1479,1.709,33.09,1111122 
SCCF RECON,ioos:station:SCCF:12:1,2011-03-02T13:00:00Z,26.4966,-82.1479,1.736,33.1,1111122 
SCCF RECON,ioos:station:SCCF:12:1,2011-03-02T14:00:00Z,26.4966,-82.1479,1.846,33.09,1111122 
SCCF RECON,ioos:station:SCCF:12:1,2011-03-02T15:00:00Z,26.4966,-82.1479,1.971,33.09,1111122 
SCCF RECON,ioos:station:SCCF:12:1,2011-03-02T16:00:00Z,26.4966,-82.1479,2.062,33.16,1111122 
SCCF RECON,ioos:station:SCCF:12:1,2011-03-02T17:00:00Z,26.4966,-82.1479,2.12,33.14,1111122 
SCCF RECON,ioos:station:SCCF:12:1,2011-03-02T18:00:00Z,26.4966,-82.1479,2.129,33.12,1111122 
SCCF RECON,ioos:station:SCCF:12:1,2011-03-02T19:00:00Z,26.4966,-82.1479,2.078,33.11,1111122 
SCCF RECON,ioos:station:SCCF:12:1,2011-03-02T20:00:00Z,26.4966,-82.1479,1.997,33.11,1111122 
SCCF RECON,ioos:station:SCCF:12:1,2011-03-02T21:00:00Z,26.4966,-82.1479,1.929,33.19,1111122 
SCCF RECON,ioos:station:SCCF:12:1,2011-03-02T22:00:00Z,26.4966,-82.1479,1.905,33.25,1111122 
SCCF RECON,ioos:station:SCCF:12:1,2011-03-02T23:00:00Z,26.4966,-82.1479,1.872,33.26,1111122 
SCCF RECON,ioos:station:SCCF:12:1,2011-03-03T00:00:00Z,26.4966,-82.1479,1.893,33.25,1111122 
SCCF RECON,ioos:station:SCCF:12:1,2011-03-03T01:00:00Z,26.4966,-82.1479,1.982,33.24,1111122 
SCCF RECON,ioos:station:SCCF:12:1,2011-03-03T02:00:00Z,26.4966,-82.1479,2.094,33.2,1111122 
SCCF RECON,ioos:station:SCCF:12:1,2011-03-03T03:00:00Z,26.4966,-82.1479,2.194,33.21,1111122 
SCCF RECON,ioos:station:SCCF:12:1,2011-03-03T04:00:00Z,26.4966,-82.1479,2.26,33.21,1111122 
SCCF RECON,ioos:station:SCCF:12:1,2011-03-03T05:00:00Z,26.4966,-82.1479,2.274,33.25,1111122 
SCCF RECON,ioos:station:SCCF:12:1,2011-03-03T06:00:00Z,26.4966,-82.1479,2.24,33.38,1111122 
SCCF RECON,ioos:station:SCCF:12:1,2011-03-03T07:00:00Z,26.4966,-82.1479,2.163,33.31,1111122 
SCCF RECON,ioos:station:SCCF:12:1,2011-03-03T08:00:00Z,26.4966,-82.1479,2.032,33.3,1111122 
SCCF RECON,ioos:station:SCCF:12:1,2011-03-03T09:00:00Z,26.4966,-82.1479,1.932,33.27,1111122 
SCCF RECON,ioos:station:SCCF:12:1,2011-03-03T10:00:00Z,26.4966,-82.1479,1.86,33.29,1111122 
SCCF RECON,ioos:station:SCCF:12:1,2011-03-03T11:00:00Z,26.4966,-82.1479,1.812,33.29,1111122 
SCCF RECON,ioos:station:SCCF:12:1,2011-03-03T12:00:00Z,26.4966,-82.1479,1.794,33.3,1111122 
SCCF RECON,ioos:station:SCCF:12:1,2011-03-03T13:00:00Z,26.4966,-82.1479,1.853,33.31,1111122 
SCCF RECON,ioos:station:SCCF:12:1,2011-03-03T14:00:00Z,26.4966,-82.1479,1.998,33.3,1111122 
SCCF RECON,ioos:station:SCCF:12:1,2011-03-03T15:00:00Z,26.4966,-82.1479,2.134,33.45,1111122 
SCCF RECON,ioos:station:SCCF:12:1,2011-03-03T16:00:00Z,26.4966,-82.1479,2.211,33.39,1111122 
SCCF RECON,ioos:station:SCCF:12:1,2011-03-03T17:00:00Z,26.4966,-82.1479,2.275,33.41,1111122 
SCCF RECON,ioos:station:SCCF:12:1,2011-03-03T18:00:00Z,26.4966,-82.1479,2.276,33.33,1111122 
SCCF RECON,ioos:station:SCCF:12:1,2011-03-03T19:00:00Z,26.4966,-82.1479,2.262,33.45,1111122 
SCCF RECON,ioos:station:SCCF:12:1,2011-03-03T20:00:00Z,26.4966,-82.1479,2.213,33.44,1111122 
SCCF RECON,ioos:station:SCCF:12:1,2011-03-03T21:00:00Z,26.4966,-82.1479,2.141,33.49,1111122 
SCCF RECON,ioos:station:SCCF:12:1,2011-03-03T22:00:00Z,26.4966,-82.1479,2.077,33.56,1111122 
SCCF RECON,ioos:station:SCCF:12:1,2011-03-03T23:00:00Z,26.4966,-82.1479,2.002,33.57,1111122 
SCCF RECON,ioos:station:SCCF:12:1,2011-03-04T00:00:00Z,26.4966,-82.1479,1.967,33.56,1111122 
SCCF RECON,ioos:station:SCCF:12:1,2011-03-04T01:00:00Z,26.4966,-82.1479,2.021,33.55,1111122 
SCCF RECON,ioos:station:SCCF:12:1,2011-03-04T02:00:00Z,26.4966,-82.1479,2.156,33.52,1111122 
SCCF RECON,ioos:station:SCCF:12:1,2011-03-04T03:00:00Z,26.4966,-82.1479,2.281,33.46,1111122 
SCCF RECON,ioos:station:SCCF:12:1,2011-03-04T04:00:00Z,26.4966,-82.1479,2.364,33.39,1111122 
SCCF RECON,ioos:station:SCCF:12:1,2011-03-04T05:00:00Z,26.4966,-82.1479,2.382,33.24,1111122 
SCCF RECON,ioos:station:SCCF:12:1,2011-03-04T06:00:00Z,26.4966,-82.1479,2.323,33.37,1111122 
SCCF RECON,ioos:station:SCCF:12:1,2011-03-04T07:00:00Z,26.4966,-82.1479,2.228,33.57,1111122 
SCCF RECON,ioos:station:SCCF:12:1,2011-03-04T08:00:00Z,26.4966,-82.1479,2.131,33.52,1111122 
SCCF RECON,ioos:station:SCCF:12:1,2011-03-04T09:00:00Z,26.4966,-82.1479,2.031,33.55,1111122 
SCCF RECON,ioos:station:SCCF:12:1,2011-03-04T10:00:00Z,26.4966,-82.1479,1.936,33.54,1111122 
SCCF RECON,ioos:station:SCCF:12:1,2011-03-04T11:00:00Z,26.4966,-82.1479,1.857,33.27,1111122 
SCCF RECON,ioos:station:SCCF:12:1,2011-03-04T12:00:00Z,26.4966,-82.1479,1.797,33.21,1111122 
SCCF RECON,ioos:station:SCCF:12:1,2011-03-04T13:00:00Z,26.4966,-82.1479,1.79,33.5,1111122 
SCCF RECON,ioos:station:SCCF:12:1,2011-03-04T14:00:00Z,26.4966,-82.1479,1.883,33.59,1111122 
SCCF RECON,ioos:station:SCCF:12:1,2011-03-04T15:00:00Z,26.4966,-82.1479,2.018,33.45,1111122 
SCCF RECON,ioos:station:SCCF:12:1,2011-03-04T16:00:00Z,26.4966,-82.1479,2.138,33.47,1111122 
SCCF RECON,ioos:station:SCCF:12:1,2011-03-04T17:00:00Z,26.4966,-82.1479,2.255,33.56,1111122 
SCCF RECON,ioos:station:SCCF:12:1,2011-03-04T18:00:00Z,26.4966,-82.1479,2.309,33.59,1111122 
SCCF RECON,ioos:station:SCCF:12:1,2011-03-04T19:00:00Z,26.4966,-82.1479,2.311,33.26,1111122 
SCCF RECON,ioos:station:SCCF:12:1,2011-03-04T20:00:00Z,26.4966,-82.1479,2.249,33.17,1111122 
SCCF RECON,ioos:station:SCCF:12:1,2011-03-04T21:00:00Z,26.4966,-82.1479,2.165,33.06,1111122 
SCCF RECON,ioos:station:SCCF:12:1,2011-03-04T22:00:00Z,26.4966,-82.1479,2.087,33.09,1111122 
SCCF RECON,ioos:station:SCCF:12:1,2011-03-04T23:00:00Z,26.4966,-82.1479,2.038,33.13,1111122 
SCCF RECON,ioos:station:SCCF:12:1,2011-03-05T00:00:00Z,26.4966,-82.1479,2.016,33.17,1111122 
SCCF RECON,ioos:station:SCCF:12:1,2011-03-05T01:00:00Z,26.4966,-82.1479,2.049,33.24,1111122 
SCCF RECON,ioos:station:SCCF:12:1,2011-03-05T02:00:00Z,26.4966,-82.1479,2.143,33.22,1111122 
SCCF RECON,ioos:station:SCCF:12:1,2011-03-05T03:00:00Z,26.4966,-82.1479,2.261,33.21,1111122 
SCCF RECON,ioos:station:SCCF:12:1,2011-03-05T04:00:00Z,26.4966,-82.1479,2.376,33.22,1111122 
SCCF RECON,ioos:station:SCCF:12:1,2011-03-05T05:00:00Z,26.4966,-82.1479,2.46,33.24,1111122 
SCCF RECON,ioos:station:SCCF:12:1,2011-03-05T06:00:00Z,26.4966,-82.1479,2.48,33.32,1111122 
SCCF RECON,ioos:station:SCCF:12:1,2011-03-05T07:00:00Z,26.4966,-82.1479,2.423,33.34,1111122 
SCCF RECON,ioos:station:SCCF:12:1,2011-03-05T08:00:00Z,26.4966,-82.1479,2.32,33.26,1111122 
SCCF RECON,ioos:station:SCCF:12:1,2011-03-05T09:00:00Z,26.4966,-82.1479,2.2,33.26,1111122 
SCCF RECON,ioos:station:SCCF:12:1,2011-03-05T10:00:00Z,26.4966,-82.1479,2.1,33.27,1111122 
SCCF RECON,ioos:station:SCCF:12:1,2011-03-05T11:00:00Z,26.4966,-82.1479,2.012,33.25,1111122 
SCCF RECON,ioos:station:SCCF:12:1,2011-03-05T12:00:00Z,26.4966,-82.1479,1.934,33.25,1111122 
SCCF RECON,ioos:station:SCCF:12:1,2011-03-05T13:00:00Z,26.4966,-82.1479,1.898,33.22,1111122 
SCCF RECON,ioos:station:SCCF:12:1,2011-03-05T14:00:00Z,26.4966,-82.1479,1.943,33.16,1111122 
SCCF RECON,ioos:station:SCCF:12:1,2011-03-05T15:00:00Z,26.4966,-82.1479,2.061,33.21,1111122 
SCCF RECON,ioos:station:SCCF:12:1,2011-03-05T16:00:00Z,26.4966,-82.1479,2.198,33.31,1111122 
SCCF RECON,ioos:station:SCCF:12:1,2011-03-05T17:00:00Z,26.4966,-82.1479,2.315,33.26,1111122 
SCCF RECON,ioos:station:SCCF:12:1,2011-03-05T18:00:00Z,26.4966,-82.1479,2.39,33.25,1111122 
SCCF RECON,ioos:station:SCCF:12:1,2011-03-05T19:00:00Z,26.4966,-82.1479,2.383,33.26,1111122 
SCCF RECON,ioos:station:SCCF:12:1,2011-03-05T20:00:00Z,26.4966,-82.1479,2.297,33.2,1111122 
SCCF RECON,ioos:station:SCCF:12:1,2011-03-05T21:00:00Z,26.4966,-82.1479,2.189,33.13,1111122 
SCCF RECON,ioos:station:SCCF:12:1,2011-03-05T22:00:00Z,26.4966,-82.1479,2.085,33.2,1111122 
SCCF RECON,ioos:station:SCCF:12:1,2011-03-05T23:00:00Z,26.4966,-82.1479,2.0,33.24,1111122 
SCCF RECON,ioos:station:SCCF:12:1,2011-03-06T00:00:00Z,26.4966,-82.1479,1.93,33.24,1111122 
SCCF RECON,ioos:station:SCCF:12:1,2011-03-06T01:00:00Z,26.4966,-82.1479,1.92,33.17,1111122 
SCCF RECON,ioos:station:SCCF:12:1,2011-03-06T02:00:00Z,26.4966,-82.1479,1.98,33.17,1111122 
SCCF RECON,ioos:station:SCCF:12:1,2011-03-06T03:00:00Z,26.4966,-82.1479,2.11,33.22,1111122 
SCCF RECON,ioos:station:SCCF:12:1,2011-03-06T04:00:00Z,26.4966,-82.1479,2.27,33.23,1111122 
SCCF RECON,ioos:station:SCCF:12:1,2011-03-06T05:00:00Z,26.4966,-82.1479,2.38,33.21,1111122 
SCCF RECON,ioos:station:SCCF:12:1,2011-03-06T06:00:00Z,26.4966,-82.1479,2.43,33.14,1111122 
SCCF RECON,ioos:station:SCCF:12:1,2011-03-06T07:00:00Z,26.4966,-82.1479,2.41,33.13,1111122 
SCCF RECON,ioos:station:SCCF:12:1,2011-03-06T08:00:00Z,26.4966,-82.1479,2.34,33.2,1111122 
SCCF RECON,ioos:station:SCCF:12:1,2011-03-06T09:00:00Z,26.4966,-82.1479,2.25,33.39,1111122 
SCCF RECON,ioos:station:SCCF:12:1,2011-03-06T10:00:00Z,26.4966,-82.1479,2.14,33.42,1111122 
SCCF RECON,ioos:station:SCCF:12:1,2011-03-06T11:00:00Z,26.4966,-82.1479,2.034,33.4,1111122 
SCCF RECON,ioos:station:SCCF:12:1,2011-03-06T12:00:00Z,26.4966,-82.1479,1.969,33.41,1111122 
SCCF RECON,ioos:station:SCCF:12:1,2011-03-06T13:00:00Z,26.4966,-82.1479,1.93,33.4,1111122 
SCCF RECON,ioos:station:SCCF:12:1,2011-03-06T14:00:00Z,26.4966,-82.1479,1.915,33.42,1111122 
SCCF RECON,ioos:station:SCCF:12:1,2011-03-06T15:00:00Z,26.4966,-82.1479,1.979,33.41,1111122 
SCCF RECON,ioos:station:SCCF:12:1,2011-03-06T16:00:00Z,26.4966,-82.1479,2.134,33.38,1111122 
SCCF RECON,ioos:station:SCCF:12:1,2011-03-06T17:00:00Z,26.4966,-82.1479,2.287,33.39,1111122 
SCCF RECON,ioos:station:SCCF:12:1,2011-03-06T18:00:00Z,26.4966,-82.1479,2.38,33.4,1111122 
SCCF RECON,ioos:station:SCCF:12:1,2011-03-06T19:00:00Z,26.4966,-82.1479,2.38,33.44,1111122 
SCCF RECON,ioos:station:SCCF:12:1,2011-03-06T20:00:00Z,26.4966,-82.1479,2.31,33.55,1111122 
SCCF RECON,ioos:station:SCCF:12:1,2011-03-06T21:00:00Z,26.4966,-82.1479,2.2,33.58,1111122 
SCCF RECON,ioos:station:SCCF:12:1,2011-03-06T22:00:00Z,26.4966,-82.1479,2.087,33.61,1111122 
SCCF RECON,ioos:station:SCCF:12:1,2011-03-06T23:00:00Z,26.4966,-82.1479,1.984,33.6,1111122 
SCCF RECON,ioos:station:SCCF:12:1,2011-03-07T00:00:00Z,26.4966,-82.1479,1.924,33.64,1111122 
SCCF RECON,ioos:station:SCCF:12:1,2011-03-07T01:00:00Z,26.4966,-82.1479,1.874,33.48,1111122 
SCCF RECON,ioos:station:SCCF:12:1,2011-03-07T02:00:00Z,26.4966,-82.1479,1.849,33.34,1111122 
SCCF RECON,ioos:station:SCCF:12:1,2011-03-07T03:00:00Z,26.4966,-82.1479,1.885,33.41,1111122 
SCCF RECON,ioos:station:SCCF:12:1,2011-03-07T04:00:00Z,26.4966,-82.1479,1.966,33.3,1111122 
SCCF RECON,ioos:station:SCCF:12:1,2011-03-07T05:00:00Z,26.4966,-82.1479,2.102,33.27,1111122 
SCCF RECON,ioos:station:SCCF:12:1,2011-03-07T06:00:00Z,26.4966,-82.1479,2.219,33.3,1111122 
SCCF RECON,ioos:station:SCCF:12:1,2011-03-07T07:00:00Z,26.4966,-82.1479,2.285,33.3,1111122 
SCCF RECON,ioos:station:SCCF:12:1,2011-03-07T08:00:00Z,26.4966,-82.1479,2.272,33.32,1111122 
SCCF RECON,ioos:station:SCCF:12:1,2011-03-07T09:00:00Z,26.4966,-82.1479,2.178,33.3,1111122 
SCCF RECON,ioos:station:SCCF:12:1,2011-03-07T10:00:00Z,26.4966,-82.1479,2.077,33.33,1111122 
SCCF RECON,ioos:station:SCCF:12:1,2011-03-07T11:00:00Z,26.4966,-82.1479,2.002,33.33,1111122 
SCCF RECON,ioos:station:SCCF:12:1,2011-03-07T12:00:00Z,26.4966,-82.1479,1.936,33.31,1111122 
SCCF RECON,ioos:station:SCCF:12:1,2011-03-07T13:00:00Z,26.4966,-82.1479,1.891,33.31,1111122 
SCCF RECON,ioos:station:SCCF:12:1,2011-03-07T14:00:00Z,26.4966,-82.1479,1.892,33.32,1111122 
SCCF RECON,ioos:station:SCCF:12:1,2011-03-07T15:00:00Z,26.4966,-82.1479,1.951,33.32,1111122 
SCCF RECON,ioos:station:SCCF:12:1,2011-03-07T16:00:00Z,26.4966,-82.1479,2.071,33.31,1111122 
SCCF RECON,ioos:station:SCCF:12:1,2011-03-07T17:00:00Z,26.4966,-82.1479,2.196,33.29,1111122 
SCCF RECON,ioos:station:SCCF:12:1,2011-03-07T18:00:00Z,26.4966,-82.1479,2.29,33.29,1111122 
SCCF RECON,ioos:station:SCCF:12:1,2011-03-07T19:00:00Z,26.4966,-82.1479,2.345,33.29,1111122 
SCCF RECON,ioos:station:SCCF:12:1,2011-03-07T20:00:00Z,26.4966,-82.1479,2.33,33.32,1111122 
SCCF RECON,ioos:station:SCCF:12:1,2011-03-07T21:00:00Z,26.4966,-82.1479,2.254,33.33,1111122 
SCCF RECON,ioos:station:SCCF:12:1,2011-03-07T22:00:00Z,26.4966,-82.1479,2.15,33.33,1111122 
SCCF RECON,ioos:station:SCCF:12:1,2011-03-07T23:00:00Z,26.4966,-82.1479,2.039,33.32,1111122 
SCCF RECON,ioos:station:SCCF:12:1,2011-03-08T00:00:00Z,26.4966,-82.1479,1.952,33.32,1111122 
SCCF RECON,ioos:station:SCCF:12:1,2011-03-08T01:00:00Z,26.4966,-82.1479,1.887,33.33,1111122 
SCCF RECON,ioos:station:SCCF:12:1,2011-03-08T02:00:00Z,26.4966,-82.1479,1.858,33.34,1111122 
SCCF RECON,ioos:station:SCCF:12:1,2011-03-08T03:00:00Z,26.4966,-82.1479,1.893,33.31,1111122 
SCCF RECON,ioos:station:SCCF:12:1,2011-03-08T04:00:00Z,26.4966,-82.1479,1.97,33.29,1111122 
SCCF RECON,ioos:station:SCCF:12:1,2011-03-08T05:00:00Z,26.4966,-82.1479,2.093,33.26,1111122 
SCCF RECON,ioos:station:SCCF:12:1,2011-03-08T06:00:00Z,26.4966,-82.1479,2.195,33.24,1111122 
SCCF RECON,ioos:station:SCCF:12:1,2011-03-08T07:00:00Z,26.4966,-82.1479,2.25,33.25,1111122 
SCCF RECON,ioos:station:SCCF:12:1,2011-03-08T08:00:00Z,26.4966,-82.1479,2.27,33.27,1111122 
SCCF RECON,ioos:station:SCCF:12:1,2011-03-08T09:00:00Z,26.4966,-82.1479,2.226,33.32,1111122 
SCCF RECON,ioos:station:SCCF:12:1,2011-03-08T10:00:00Z,26.4966,-82.1479,2.159,33.36,1111122 
SCCF RECON,ioos:station:SCCF:12:1,2011-03-08T11:00:00Z,26.4966,-82.1479,2.08,33.39,1111122 
SCCF RECON,ioos:station:SCCF:12:1,2011-03-08T12:00:00Z,26.4966,-82.1479,2.02,33.39,1111122 
SCCF RECON,ioos:station:SCCF:12:1,2011-03-08T13:00:00Z,26.4966,-82.1479,1.99,33.38,1111122 
SCCF RECON,ioos:station:SCCF:12:1,2011-03-08T14:00:00Z,26.4966,-82.1479,2.02,33.39,1111122 
SCCF RECON,ioos:station:SCCF:12:1,2011-03-08T15:00:00Z,26.4966,-82.1479,2.088,33.39,1111122 
SCCF RECON,ioos:station:SCCF:12:1,2011-03-08T16:00:00Z,26.4966,-82.1479,2.189,33.38,1111122 
SCCF RECON,ioos:station:SCCF:12:1,2011-03-08T17:00:00Z,26.4966,-82.1479,2.287,33.37,1111122 
SCCF RECON,ioos:station:SCCF:12:1,2011-03-08T18:00:00Z,26.4966,-82.1479,2.365,33.38,1111122 
SCCF RECON,ioos:station:SCCF:12:1,2011-03-08T19:00:00Z,26.4966,-82.1479,2.407,33.39,1111122 
SCCF RECON,ioos:station:SCCF:12:1,2011-03-08T20:00:00Z,26.4966,-82.1479,2.395,33.39,1111122 
SCCF RECON,ioos:station:SCCF:12:1,2011-03-08T21:00:00Z,26.4966,-82.1479,2.329,33.41,1111122 
SCCF RECON,ioos:station:SCCF:12:1,2011-03-08T22:00:00Z,26.4966,-82.1479,2.243,33.42,1111122 
SCCF RECON,ioos:station:SCCF:12:1,2011-03-08T23:00:00Z,26.4966,-82.1479,2.132,33.43,1111122 
SCCF RECON,ioos:station:SCCF:12:1,2011-03-09T00:00:00Z,26.4966,-82.1479,2.02,33.45,1111122 
SCCF RECON,ioos:station:SCCF:12:1,2011-03-09T01:00:00Z,26.4966,-82.1479,1.929,33.44,1111122 
SCCF RECON,ioos:station:SCCF:12:1,2011-03-09T02:00:00Z,26.4966,-82.1479,1.841,33.45,1111122 
SCCF RECON,ioos:station:SCCF:12:1,2011-03-09T03:00:00Z,26.4966,-82.1479,1.792,33.44,1111122 
SCCF RECON,ioos:station:SCCF:12:1,2011-03-09T04:00:00Z,26.4966,-82.1479,1.827,33.43,1111122 
SCCF RECON,ioos:station:SCCF:12:1,2011-03-09T05:00:00Z,26.4966,-82.1479,1.95,33.42,1111122 
SCCF RECON,ioos:station:SCCF:12:1,2011-03-09T06:00:00Z,26.4966,-82.1479,2.087,33.44,1111122 
SCCF RECON,ioos:station:SCCF:12:1,2011-03-09T07:00:00Z,26.4966,-82.1479,2.187,33.49,1111122 
SCCF RECON,ioos:station:SCCF:12:1,2011-03-09T08:00:00Z,26.4966,-82.1479,2.236,33.43,1111122 
SCCF RECON,ioos:station:SCCF:12:1,2011-03-09T09:00:00Z,26.4966,-82.1479,2.232,33.45,1111122 
SCCF RECON,ioos:station:SCCF:12:1,2011-03-09T10:00:00Z,26.4966,-82.1479,2.197,33.49,1111122 
SCCF RECON,ioos:station:SCCF:12:1,2011-03-09T11:00:00Z,26.4966,-82.1479,2.145,33.62,1111122 
SCCF RECON,ioos:station:SCCF:12:1,2011-03-09T12:00:00Z,26.4966,-82.1479,2.113,33.63,1111122 
SCCF RECON,ioos:station:SCCF:12:1,2011-03-09T13:00:00Z,26.4966,-82.1479,2.123,33.66,1111122 
SCCF RECON,ioos:station:SCCF:12:1,2011-03-09T14:00:00Z,26.4966,-82.1479,2.139,33.69,1111122 
SCCF RECON,ioos:station:SCCF:12:1,2011-03-09T15:00:00Z,26.4966,-82.1479,2.147,33.7,1111122 
SCCF RECON,ioos:station:SCCF:12:1,2011-03-09T16:00:00Z,26.4966,-82.1479,2.206,33.7,1111122 
SCCF RECON,ioos:station:SCCF:12:1,2011-03-09T17:00:00Z,26.4966,-82.1479,2.291,33.72,1111122 
SCCF RECON,ioos:station:SCCF:12:1,2011-03-09T18:00:00Z,26.4966,-82.1479,2.384,33.72,1111122 
SCCF RECON,ioos:station:SCCF:12:1,2011-03-09T19:00:00Z,26.4966,-82.1479,2.459,33.71,1111122 
SCCF RECON,ioos:station:SCCF:12:1,2011-03-09T20:00:00Z,26.4966,-82.1479,2.509,33.6,1111122 
SCCF RECON,ioos:station:SCCF:12:1,2011-03-09T21:00:00Z,26.4966,-82.1479,2.505,33.4,1111122 
SCCF RECON,ioos:station:SCCF:12:1,2011-03-09T22:00:00Z,26.4966,-82.1479,2.44,33.36,1111122 
SCCF RECON,ioos:station:SCCF:12:1,2011-03-09T23:00:00Z,26.4966,-82.1479,2.332,33.61,1111122 
SCCF RECON,ioos:station:SCCF:12:1,2011-03-10T00:00:00Z,26.4966,-82.1479,2.214,33.62,1111122 
SCCF RECON,ioos:station:SCCF:12:1,2011-03-10T01:00:00Z,26.4966,-82.1479,2.09,33.64,1111122 
SCCF RECON,ioos:station:SCCF:12:1,2011-03-10T02:00:00Z,26.4966,-82.1479,1.99,33.64,1111122 
SCCF RECON,ioos:station:SCCF:12:1,2011-03-10T03:00:00Z,26.4966,-82.1479,1.92,33.63,1111122 
SCCF RECON,ioos:station:SCCF:12:1,2011-03-10T04:00:00Z,26.4966,-82.1479,1.92,33.62,1111122 
SCCF RECON,ioos:station:SCCF:12:1,2011-03-10T05:00:00Z,26.4966,-82.1479,2.0,33.46,1111122 
SCCF RECON,ioos:station:SCCF:12:1,2011-03-10T06:00:00Z,26.4966,-82.1479,2.1,33.4,1111122 
SCCF RECON,ioos:station:SCCF:12:1,2011-03-10T07:00:00Z,26.4966,-82.1479,2.169,33.41,1111122 
SCCF RECON,ioos:station:SCCF:12:1,2011-03-10T08:00:00Z,26.4966,-82.1479,2.24,33.57,1111122 
SCCF RECON,ioos:station:SCCF:12:1,2011-03-10T09:00:00Z,26.4966,-82.1479,2.25,33.54,1111122 
SCCF RECON,ioos:station:SCCF:12:1,2011-03-10T10:00:00Z,26.4966,-82.1479,2.213,33.66,1111122 
SCCF RECON,ioos:station:SCCF:12:1,2011-03-10T11:00:00Z,26.4966,-82.1479,2.199,33.62,1111122 
SCCF RECON,ioos:station:SCCF:12:1,2011-03-10T12:00:00Z,26.4966,-82.1479,2.19,33.61,1111122 
SCCF RECON,ioos:station:SCCF:12:1,2011-03-10T13:00:00Z,26.4966,-82.1479,2.17,33.7,1111122 
SCCF RECON,ioos:station:SCCF:12:1,2011-03-10T14:00:00Z,26.4966,-82.1479,2.253,33.71,1111122 
SCCF RECON,ioos:station:SCCF:12:1,2011-03-10T15:00:00Z,26.4966,-82.1479,2.208,33.65,1111122 
SCCF RECON,ioos:station:SCCF:12:1,2011-03-10T16:00:00Z,26.4966,-82.1479,2.09,33.62,1111122 
SCCF RECON,ioos:station:SCCF:12:1,2011-03-10T17:00:00Z,26.4966,-82.1479,2.13,33.59,1111122 
SCCF RECON,ioos:station:SCCF:12:1,2011-03-10T18:00:00Z,26.4966,-82.1479,2.199,33.52,1111122 
SCCF RECON,ioos:station:SCCF:12:1,2011-03-10T19:00:00Z,26.4966,-82.1479,2.369,33.52,1111122 
SCCF RECON,ioos:station:SCCF:12:1,2011-03-10T20:00:00Z,26.4966,-82.1479,2.441,33.51,1111122 
SCCF RECON,ioos:station:SCCF:12:1,2011-03-10T21:00:00Z,26.4966,-82.1479,2.43,33.51,1111122 
SCCF RECON,ioos:station:SCCF:12:1,2011-03-10T22:00:00Z,26.4966,-82.1479,2.354,33.52,1111122 
SCCF RECON,ioos:station:SCCF:12:1,2011-03-10T23:00:00Z,26.4966,-82.1479,2.33,33.54,1111122 
SCCF RECON,ioos:station:SCCF:12:1,2011-03-11T00:00:00Z,26.4966,-82.1479,2.249,33.56,1111122 
SCCF RECON,ioos:station:SCCF:12:1,2011-03-11T01:00:00Z,26.4966,-82.1479,2.137,33.53,1111122 
SCCF RECON,ioos:station:SCCF:12:1,2011-03-11T02:00:00Z,26.4966,-82.1479,2.054,33.43,1111122 
SCCF RECON,ioos:station:SCCF:12:1,2011-03-11T03:00:00Z,26.4966,-82.1479,1.971,33.17,1111122 
SCCF RECON,ioos:station:SCCF:12:1,2011-03-11T04:00:00Z,26.4966,-82.1479,1.883,33.19,1111122 
SCCF RECON,ioos:station:SCCF:12:1,2011-03-11T05:00:00Z,26.4966,-82.1479,1.822,33.21,1111122 
SCCF RECON,ioos:station:SCCF:12:1,2011-03-11T06:00:00Z,26.4966,-82.1479,1.791,33.21,1111122 
SCCF RECON,ioos:station:SCCF:12:1,2011-03-11T07:00:00Z,26.4966,-82.1479,1.815,33.27,1111122 
SCCF RECON,ioos:station:SCCF:12:1,2011-03-11T08:00:00Z,26.4966,-82.1479,1.92,33.37,1111122 
SCCF RECON,ioos:station:SCCF:12:1,2011-03-11T09:00:00Z,26.4966,-82.1479,2.01,33.3,1111122 
SCCF RECON,ioos:station:SCCF:12:1,2011-03-11T10:00:00Z,26.4966,-82.1479,2.044,33.41,1111122 
SCCF RECON,ioos:station:SCCF:12:1,2011-03-11T11:00:00Z,26.4966,-82.1479,2.042,33.45,1111122 
SCCF RECON,ioos:station:SCCF:12:1,2011-03-11T12:00:00Z,26.4966,-82.1479,2.0,33.38,1111122 
SCCF RECON,ioos:station:SCCF:12:1,2011-03-11T13:00:00Z,26.4966,-82.1479,1.975,33.35,1111122 
SCCF RECON,ioos:station:SCCF:12:1,2011-03-11T14:00:00Z,26.4966,-82.1479,1.957,33.35,1111122 
SCCF RECON,ioos:station:SCCF:12:1,2011-03-11T15:00:00Z,26.4966,-82.1479,1.962,33.4,1111122 
SCCF RECON,ioos:station:SCCF:12:1,2011-03-11T16:00:00Z,26.4966,-82.1479,2.033,33.47,1111122 
SCCF RECON,ioos:station:SCCF:12:1,2011-03-11T17:00:00Z,26.4966,-82.1479,2.102,33.45,1111122 